Flag for Canada Weather past 2 weeks in Labrador City, Newfoundland and Labrador, Canada

Now
54 °F

Sprinkles. Passing clouds.


Feels Like: 52 °F
Forecast: 51 / 64 °F
Wind: 7 mph from South

Location: Wabush Lake

Current Time: Aug 2, 2014 at 6:28:01 AM

Latest Report: Aug 2, 2014 at 6:00 AM


Visibility: 15 mi

Pressure: 30.06 "Hg

Humidity: 94%

Dew point: 52 °F

Location of Labrador CityLocation

Historic Weather in Labrador City — Graph

°F

Labrador City temperature yesterday

Maximum temperature yesterday: 72 °F (at 5:00 PM)
Minimum temperature yesterday: 54 °F (at 6:00 AM)
Average temperature yesterday: 62 °F

Past Weeks' High & Low Weather Summary

 TemperatureHumidityPressure
High82 °F (Jul 21, 5:00 PM)100% (Jul 23, 5:00 AM)30.19 "Hg (Jul 23, 5:00 AM)
Low43 °F (Jul 24, 5:00 AM)32% (Jul 20, 7:00 PM)29.31 "Hg (Jul 23, 10:00 AM)
Average60 °F75%29.86 "Hg
* Reported Jul 18 6:00 AM — Aug 2 5:00 AM, Labrador City, Weather by CustomWeather, © 2014

Note: Actual official high and low records may vary slightly from our data, if they occured in-between our weather recording intervals... More about our weather records

Advertising

Labrador City weather history for previous 24 hours

 ConditionsComfort  
Time TempWeatherWind HumidityBarometerVisibility
5:00 AM
Aug 2
54 °FSprinkles. Passing clouds.6 mph94%30.06 "Hg15 mi
4:00 AM54 °FSprinkles. Overcast.7 mph94%30.05 "Hg15 mi
3:00 AM55 °FSprinkles. Overcast.6 mph94%30.05 "Hg12 mi
2:00 AM55 °FSprinkles. Mostly cloudy.5 mph94%30.05 "Hg15 mi
1:00 AM57 °FMostly cloudy.7 mph88%30.06 "Hg15 mi
12:00 AM59 °FMostly cloudy.3 mph88%30.06 "Hg15 mi
11:00 PM
Aug 1
61 °FScattered clouds.9 mph77%30.05 "Hg15 mi
10:00 PM63 °FBroken clouds.8 mph68%30.04 "Hg15 mi
9:00 PM64 °FBroken clouds.10 mph64%30.03 "Hg15 mi
8:00 PM68 °FSprinkles. Broken clouds.9 mph60%30.03 "Hg15 mi
7:00 PM70 °FScattered clouds.14 mph50%30.03 "Hg15 mi
6:00 PM70 °FPartly sunny.9 mph53%30.03 "Hg15 mi
5:00 PM72 °FBroken clouds.15 mph50%30.03 "Hg15 mi
4:00 PM70 °FPartly sunny.13 mph57%30.04 "Hg15 mi
3:00 PM66 °FSprinkles. Partly sunny.10 mph68%30.05 "Hg15 mi
2:00 PM66 °FPartly sunny.14 mph68%30.05 "Hg15 mi
1:00 PM64 °FSprinkles. Partly sunny.14 mph73%30.06 "Hg15 mi
12:00 PM63 °FSprinkles. Mostly cloudy.17 mph83%30.07 "Hg12 mi
11:53 AM66 °FSprinkles. Partly sunny.10 mph64%30.06 "Hg10 mi
11:00 AM64 °FBroken clouds.8 mph73%30.06 "Hg15 mi
10:00 AM61 °FPartly sunny.9 mph83%30.06 "Hg12 mi
9:00 AM61 °FPartly sunny.7 mph88%30.06 "Hg12 mi
8:00 AM57 °FFog.6 mph100%30.05 "Hg5 mi
7:50 AM57 °FFog.5 mph94%30.05 "Hg2 mi
7:00 AM55 °FFog.3 mph100%30.04 "Hg0 mi
6:00 AM54 °FFog.3 mph100%30.06 "Hg8 mi
Weather by CustomWeather, © 2014

See weather overviewHow to use our weather pages